Regional Weather Roundup
Issued by NWS Wakefield, VA

Home | Current Version | Previous Version | Text Only | Print | Product List | Glossary Off
Versions: 1 2 3 4 5 6 7 8 9 10 11 12 13 14 15 16 17 18 19 20 21 22 23 24 25 26 27 28 29 30 31 32 33 34 35 36 37 38 39 40 41 42 43 44 45 46 47 48 49 50

000
ASUS41 KAKQ 270510
RWRAKQ

REGIONAL WEATHER ROUNDUP
NATIONAL WEATHER SERVICE WAKEFIELD VA
100 AM EDT SUN JUL 27 2014

Note: "fair" indicates few or no clouds below 12,000 feet with no
significant weather and/or obstructions to visibility. * = Denotes
station may not report precipitation (e.g., rain,snow,etc.),
thunder or fog.

VAZ042-051-052>054-056-270600-
NORTHERN VIRGINIA

CITY           SKY/WX    TMP DP  RH WIND       PRES   REMARKS
WASH NATIONAL  CLOUDY    79  71  76 S7        29.87F
DULLES         CLOUDY    75  70  84 W3        29.89S
FORT BELVOIR   CLOUDY    75  71  86 S1        29.88F
QUANTICO       LGT RAIN  78  72  81 SW7       29.87F
FREDERICKSBRG* LGT RAIN  76  72  88 S5        29.87F
STAFFORD*      CLOUDY    74  74 100 CALM      29.91F
WARRENTON      CLOUDY    74  74 100 CALM      29.87F
CULPEPER*      MOCLDY   N/A N/A N/A CALM      29.88F FOG
MANASSAS*      CLOUDY    75  73  94 CALM      29.88R
LEESBURG*      CLOUDY    73  72  94 CALM      29.90R
WINCHESTER     CLOUDY    70  68  94 E3        29.88F
$$

VAZ048-049-060>072-079>083-270600-
CENTRAL AND SOUTH CENTRAL VIRGINIA...AND NORTH CENTRAL NORTH CAROLINA

CITY           SKY/WX    TMP DP  RH WIND       PRES   REMARKS
RICHMOND       CLOUDY    76  72  87 SE3       29.90F
CHESTERFIELD*  MOCLDY    75  64  69 S5        29.91F
HANOVER        CLOUDY    76  71  85 SE3       29.90F
TAPPAHANNOCK*  LGT RAIN  73  69  88 S3        29.91S
CHARLOTTSVILLE PTCLDY    71  68  90 CALM      29.90F
ORANGE*        PTCLDY    72  68  88 S5        29.90F
LOUISA*        MOCLDY    75  72  88 CALM      29.89S
FARMVILLE*     PTCLDY    75  70  83 S3        29.89F
SOUTH HILL*    PTCLDY    73  73 100 S3        29.98S
ROANOKE RAPIDS NOT AVBL
RALEIGH        PTCLDY    75  68  78 W5        29.94F
$$

VAZ088>098-270600-
SOUTHEAST VIRGINIA

CITY           SKY/WX    TMP DP  RH WIND       PRES   REMARKS
NORFOLK        CLOUDY    74  71  91 S7        29.91F
VIRGINIA BEACH MOCLDY    76  73  91 S8        29.91F
NORFOLK NAVAL  CLOUDY    76  70  82 S5        29.93F
WEST POINT*    MOCLDY    77  73  88 CALM      29.92S
NEWPORT NEWS   MOCLDY    80  73  79 SW8       29.91F
LANGLEY AFB    CLOUDY    76  76 100 SW7       29.90F
FORT EUSTIS    MOCLDY    77  77 100 S5        29.89F
WILLIAMSBURG*  PTCLDY    77  75  94 S5        29.91F
FRANKLIN*      PTCLDY    77  73  88 S8        29.91F
WAKEFIELD      PTCLDY    75  71  87 S3        29.91S
$$

VAZ020-022-025-037-045-270600-
WESTERN AND SOUTHWEST VIRGINIA

CITY           SKY/WX    TMP DP  RH WIND       PRES   REMARKS
STAUNTON*      MOCLDY    69  66  92 CALM      29.94F
HOT SPRINGS VA CLOUDY    67  56  67 W15       30.10S
LYNCHBURG      MOCLDY    74  67  78 SW3       29.95F
DANVILLE       PTCLDY    75  68  78 SW3       29.95S
MARTINSVILLE   PTCLDY    71  67  87 CALM      29.99S
ROANOKE        MOCLDY    79  61  53 SW7       29.96F
BLACKSBURG     PTCLDY    72  66  83 CALM        N/A
DUBLIN*        LGT RAIN  72  66  82 SW6       30.04S
MARION*        MOCLDY   N/A N/A N/A SW10      30.09S
HILLSVILLE*    PTCLDY    68  63  83 N3        30.09R
RICHLANDS*     CLOUDY    76  64  65 SW8G16    30.08S
WISE*          CLOUDY    73  61  64 SW14      30.10S
ABINGDON*      MOCLDY    72  66  83 CALM      30.08R
$$

MDZ021>025-VAZ099-100-270600-
SOUTHERN MARYLAND AND THE DELMARVA PENINSULA

CITY           SKY/WX    TMP DP  RH WIND       PRES   REMARKS
PATUXENT RIVER CLOUDY    74  71  91 SE6       29.88F
BAY BRIDGE APT   N/A     77  73  88 S6        29.88F
LEONARDTOWN    CLOUDY    72  70  94 CALM      29.90F
DOVER          PTCLDY    70  70  99 SE6       29.87F
GEORGETOWN     PTCLDY    70  67  90 SE7       29.91F
EASTON         MOCLDY    76  76 100 S6        29.92F
CAMBRIDGE      MOCLDY    73  70  88 SE6       29.89F
SALISBURY      NOT AVBL
OCEAN CITY     PTCLDY    75  71  87 S6        29.91F
WALLOPS ISLAND PTCLDY    77  73  87 SW10      29.92F
ACCOMACK*        N/A     75  70  83 S7        29.91F
$$

NCZ012>017-030>032-270600-
EASTERN NORTH CAROLINA

CITY           SKY/WX    TMP DP  RH WIND       PRES   REMARKS
ELIZABETH CITY PTCLDY    75  74  96 S7        29.94F
AHOSKIE*       CLEAR     74  72  92 CALM      29.93S
EDENTON*       PTCLDY    78  74  88 S12       29.93F
CURRITUCK*     PTCLDY    76  71  85 S3        29.94F
KILL DEVIL HLS PTCLDY    78  74  89 S3        29.94F
MANTEO         NOT AVBL
CAPE HATTERAS  PTCLDY    79  76  90 W6        29.98F
GOLDSBORO      CLEAR     77  77  98 S8        29.92F
WASHINGTON     CLEAR     76  73  90 S5        29.96F
GREENVILLE     CLEAR     77  73  88 S8        29.95F
NEW BERN       CLEAR     78  75  90 S7        29.98F
WILMINGTON     PTCLDY    79  77  94 SW5       29.98F
$$

VAZ048-270600-
ELSEWHERE

CITY           SKY/WX    TMP DP  RH WIND       PRES   REMARKS
HARRISBURG PA  MOCLDY    76  66  71 S6        29.86S
BALTIMORE      CLOUDY    75  70  84 CALM      29.86F
ANNAPOLIS      MOCLDY    77  70  79 S7        29.86F
ANDREWS AFB    CLOUDY    73  72  94 S5        29.87F
WILMINGTON DE  MOCLDY    74  69  85 SW8       29.90F
PHILADELPHIA   PTCLDY    73  68  84 S6        29.89F
WILDWOOD NJ*   PTCLDY    72  66  83 S7        29.92F
ATLANTIC CITY  PTCLDY    72  68  87 S5        29.91F
HENDERSON NC   PTCLDY    74  69  85 SW5       29.94F
GREENSBORO     PTCLDY    76  66  71 SW8       29.97S
ROCKY MOUNT    CLEAR     76  72  87 S6        29.92F
FAYETTEVILLE   CLEAR     78  73  84 S9        29.95F
CHARLOTTE      PTCLDY    74  66  76 CALM      30.00R
$$

VAZ100-270600-
MARINE

STATION/POSITION TIME  TEMP    WIND        PRES    WAVE   SWELL
                       AIR SEA DIR/SP/G            HT/PER HT/PER
                 (UTC) (F)     (DEG/KT/KT) (MB)    (FT/S) (FT/S)
44066 TX TWR #4  0500   74 74  200/ 10/ 12 1013.1F   2/ 7   2/ 7
CAPE MAY NJ      0500   72 78  160/  6/  8 1012.4F
LEWES DE         0500   73 72  190/  5/  9 1012.4F
15NM E FENWICK I 0500   77 76              1013.1F   2/ 7
OCEAN-CITY-INLET 0500   72 71  210/  6/  7 1012.5F
WACHAPREAGUE VA  0500   77 81  200/  9/ 13 1012.8R
THOMAS POINT MD  0500   78 79  180/ 14/ 15 1011.8F
GOOSES REEF MD   0500   77     200/ 10/ 12 1012.3F
COVE POINT MD    0500   76     200/ 11/ 12 1012.1F
SOLOMONS ISLAND  0500      81                N/A
BISHOPS HEAD MD  0500   78 78  190/  9/ 10 1012.2R
PINEY POINT MD   0500          190/ 10/ 11   N/A
POTOMAC MD       0500   77     200/ 10/ 12 1011.5F
CAMBRIDGE MD     0500   74 80  180/  4/  6 1011.9S
LEWISETTA VA     0500   75 80  200/  7/  8 1011.8F
RAPPAHANNOCK LGT 0500          170/ 13/ 14 1013.1R
STINGRAY PT      0500   78     200/ 10/ 14 1013.3R
YORK RVR RNG VA  0500   78     200/ 11/ 14 1012.0S
YORKTOWN VA      0500   76 81  210/  5/  7 1012.4R
JAMESTOWN VA     0500   77     220/  8/ 10   N/A
DOMINION TERM VA 0500   78     180/ 11/ 14 1012.7S
KIPTOPEKE VA     0500      82  190/ 12/ 14   N/A
CHES BAY BRIDGE  0500   77 76  160/ 12/ 15 1012.2F
CAPE HENRY VA    0500   76     180/  7/ 12 1012.0R
WILLOUBY STN VA  0500          140/  8/ 10 1011.8F
S CRANEY ISL VA  0500          150/ 11/ 14 1012.6F
CAPE HENRY BUOY  0400      77                N/A     3/ 4
1ST LANDING BUOY 0500   76     190/ 12/ 12 1012.8R
CAPE CHARLES BUO 0500      77                N/A     3/ 4
OFFSHORE WE BUOY 0500      78                N/A     3/ 4
64NM E OF VA BCH 0500   78 78  180/ 12/ 14 1013.7F   2/ 7   2/ 7
DUCK PIER NC     0500   79 77  170/ 10/ 12 1013.1F
44056 DUCK FRF   0500                        N/A     1/13
OREGON INLET NC  0500   80 81  190/  8/  9 1014.6F
HATTERAS NC      0500   79 83  240/  5/  9 1015.5F
DIAMOND SHLS NC  0500          VRB 10/ 12  1015.0F   2/ 6   2/ 6
CAPE LOOKOUT NC  0400   80     230/  7/  9 1015.5F
$$


USA.gov is the U.S. government's official web portal to all federal, state and local government web resources and services.